Time,TemperatureF,DewpointF,PressureIn,WindDirection,WindDirectionDegrees,WindSpeedMPH,WindSpeedGustMPH,Humidity,HourlyPrecipIn,Conditions,Clouds,dailyrainin,SoftwareType,DateUTC
2013-09-27 00:01:00,54.7,45.5,30.10,ENE,71,6.9,8.1,71,0.00,,,0.00,meteobridge,2013-09-26 22:01:00,
2013-09-27 00:06:00,54.7,45.5,30.10,NNE,27,4.0,8.1,71,0.00,,,0.00,meteobridge,2013-09-26 22:06:00,
2013-09-27 00:11:00,54.7,45.5,30.10,ENE,72,6.0,6.0,71,0.00,,,0.00,meteobridge,2013-09-26 22:11:00,
2013-09-27 00:16:00,54.7,45.9,30.11,SE,129,4.0,4.9,72,0.00,,,0.00,meteobridge,2013-09-26 22:16:00,
2013-09-27 00:21:00,54.7,45.9,30.10,East,85,4.9,4.9,72,0.00,,,0.00,meteobridge,2013-09-26 22:21:00,
2013-09-27 00:26:00,54.7,45.9,30.10,ENE,65,2.9,6.9,72,0.00,,,0.00,meteobridge,2013-09-26 22:26:00,
2013-09-27 00:31:00,54.5,45.7,30.11,ENE,70,4.0,6.0,72,0.00,,,0.00,meteobridge,2013-09-26 22:31:00,
2013-09-27 00:36:00,54.7,46.2,30.10,NE,49,6.0,6.0,73,0.00,,,0.00,meteobridge,2013-09-26 22:36:00,
2013-09-27 00:41:00,54.5,46.0,30.11,East,92,4.0,6.0,73,0.00,,,0.00,meteobridge,2013-09-26 22:41:00,
2013-09-27 00:47:00,54.5,46.0,30.11,East,94,0.9,4.0,73,0.00,,,0.00,meteobridge,2013-09-26 22:47:00,
2013-09-27 00:52:00,54.5,46.0,30.11,ESE,108,4.0,8.1,73,0.00,,,0.00,meteobridge,2013-09-26 22:52:00,
2013-09-27 00:57:00,54.3,45.9,30.11,SE,129,2.0,8.9,73,0.00,,,0.00,meteobridge,2013-09-26 22:57:00,
2013-09-27 01:02:00,54.3,45.5,30.11,East,82,4.0,8.9,72,0.00,,,0.00,meteobridge,2013-09-26 23:02:00,
2013-09-27 01:07:00,54.3,45.5,30.11,East,98,8.1,11.0,72,0.00,,,0.00,meteobridge,2013-09-26 23:07:00,
2013-09-27 01:12:00,54.3,45.1,30.11,East,101,4.9,6.9,71,0.00,,,0.00,meteobridge,2013-09-26 23:12:00,
2013-09-27 01:17:00,54.3,45.1,30.11,SE,126,2.9,8.1,71,0.00,,,0.00,meteobridge,2013-09-26 23:17:00,
2013-09-27 01:22:00,54.3,45.1,30.11,East,85,2.9,4.9,71,0.00,,,0.00,meteobridge,2013-09-26 23:22:00,
2013-09-27 01:27:00,54.3,45.5,30.11,SSW,193,0.9,4.9,72,0.00,,,0.00,meteobridge,2013-09-26 23:27:00,
2013-09-27 01:32:00,54.3,45.9,30.11,SE,143,2.0,4.0,73,0.00,,,0.00,meteobridge,2013-09-26 23:32:00,
2013-09-27 01:37:00,54.1,45.7,30.11,SE,142,0.9,2.9,73,0.00,,,0.00,meteobridge,2013-09-26 23:37:00,
2013-09-27 01:42:00,54.0,45.9,30.11,SE,126,2.0,6.0,74,0.00,,,0.00,meteobridge,2013-09-26 23:42:00,
2013-09-27 01:47:00,53.8,45.7,30.11,ESE,123,2.0,4.9,74,0.00,,,0.00,meteobridge,2013-09-26 23:47:00,
2013-09-27 01:52:00,53.6,45.9,30.11,NE,50,4.0,4.9,75,0.00,,,0.00,meteobridge,2013-09-26 23:52:00,
2013-09-27 01:57:00,53.4,45.7,30.11,East,92,0.9,4.0,75,0.00,,,0.00,meteobridge,2013-09-26 23:57:00,
2013-09-27 02:02:00,53.1,45.3,30.11,ENE,75,2.9,2.9,75,0.00,,,0.00,meteobridge,2013-09-27 00:02:00,
2013-09-27 02:10:00,52.9,45.5,30.11,NNE,32,0.0,4.0,76,0.00,,,0.00,meteobridge,2013-09-27 00:10:00,
2013-09-27 02:15:00,52.7,45.3,30.11,ESE,107,0.9,6.0,76,0.00,,,0.00,meteobridge,2013-09-27 00:15:00,
2013-09-27 02:20:00,52.5,45.1,30.11,ENE,77,2.9,8.1,76,0.00,,,0.00,meteobridge,2013-09-27 00:20:00,
2013-09-27 02:25:00,52.3,45.0,30.11,East,97,4.9,6.0,76,0.00,,,0.00,meteobridge,2013-09-27 00:25:00,
2013-09-27 02:30:00,52.2,44.8,30.11,ENE,73,0.0,4.9,76,0.00,,,0.00,meteobridge,2013-09-27 00:30:00,
2013-09-27 02:35:00,52.0,44.6,30.11,ENE,71,2.9,4.0,76,0.00,,,0.00,meteobridge,2013-09-27 00:35:00,
2013-09-27 02:40:00,52.0,45.0,30.11,East,81,2.0,4.9,77,0.00,,,0.00,meteobridge,2013-09-27 00:40:00,
2013-09-27 02:45:00,51.8,44.8,30.11,East,83,0.9,4.0,77,0.00,,,0.00,meteobridge,2013-09-27 00:45:00,
2013-09-27 02:50:00,51.6,44.6,30.11,ENE,70,2.9,4.9,77,0.00,,,0.00,meteobridge,2013-09-27 00:50:00,
2013-09-27 02:55:00,51.6,45.0,30.11,ENE,57,2.0,2.9,78,0.00,,,0.00,meteobridge,2013-09-27 00:55:00,
2013-09-27 03:00:00,51.6,45.0,30.11,North,352,2.0,4.9,78,0.00,,,0.00,meteobridge,2013-09-27 01:00:00,
2013-09-27 03:05:00,51.4,44.8,30.11,South,187,0.0,0.9,78,0.00,,,0.00,meteobridge,2013-09-27 01:05:00,
2013-09-27 03:10:00,51.4,45.1,30.11,ENE,65,6.0,6.0,79,0.00,,,0.00,meteobridge,2013-09-27 01:10:00,
2013-09-27 03:15:00,51.3,45.0,30.10,NE,51,2.0,6.0,79,0.00,,,0.00,meteobridge,2013-09-27 01:15:00,
2013-09-27 03:20:00,51.3,45.0,30.10,ENE,70,2.9,4.0,79,0.00,,,0.00,meteobridge,2013-09-27 01:20:00,
2013-09-27 03:26:00,51.1,44.8,30.10,East,90,2.0,8.1,79,0.00,,,0.00,meteobridge,2013-09-27 01:26:00,
2013-09-27 03:31:00,51.1,44.8,30.10,ESE,110,2.9,6.0,79,0.00,,,0.00,meteobridge,2013-09-27 01:31:00,
2013-09-27 03:36:00,51.1,44.8,30.10,East,81,2.0,4.9,79,0.00,,,0.00,meteobridge,2013-09-27 01:36:00,
2013-09-27 03:41:00,50.9,44.6,30.10,ESE,115,4.0,6.0,79,0.00,,,0.00,meteobridge,2013-09-27 01:41:00,
2013-09-27 03:46:00,50.9,44.6,30.10,ENE,75,4.0,4.9,79,0.00,,,0.00,meteobridge,2013-09-27 01:46:00,
2013-09-27 03:51:00,50.7,44.4,30.10,North,356,2.0,6.0,79,0.00,,,0.00,meteobridge,2013-09-27 01:51:00,
2013-09-27 03:56:00,50.7,44.4,30.10,ENE,73,2.9,6.0,79,0.00,,,0.00,meteobridge,2013-09-27 01:56:00,
2013-09-27 04:01:00,50.7,44.4,30.10,East,99,4.9,4.9,79,0.00,,,0.00,meteobridge,2013-09-27 02:01:00,
2013-09-27 04:06:00,50.7,44.4,30.10,East,80,4.0,6.9,79,0.00,,,0.00,meteobridge,2013-09-27 02:06:00,
2013-09-27 04:11:00,50.7,44.4,30.10,ENE,64,4.0,6.0,79,0.00,,,0.00,meteobridge,2013-09-27 02:11:00,
2013-09-27 04:16:00,50.7,44.4,30.10,ENE,74,0.9,4.9,79,0.00,,,0.00,meteobridge,2013-09-27 02:16:00,
2013-09-27 04:21:00,50.5,44.2,30.10,ENE,64,2.0,2.9,79,0.00,,,0.00,meteobridge,2013-09-27 02:21:00,
2013-09-27 04:26:00,50.5,44.2,30.10,NE,54,6.0,6.9,79,0.00,,,0.00,meteobridge,2013-09-27 02:26:00,
2013-09-27 04:31:00,50.5,44.2,30.10,ESE,110,2.0,4.9,79,0.00,,,0.00,meteobridge,2013-09-27 02:31:00,
2013-09-27 04:36:00,50.4,44.4,30.10,ENE,64,2.0,4.9,80,0.00,,,0.00,meteobridge,2013-09-27 02:36:00,
2013-09-27 04:41:00,50.4,44.4,30.10,ENE,68,2.0,4.0,80,0.00,,,0.00,meteobridge,2013-09-27 02:41:00,
2013-09-27 04:46:00,50.4,44.8,30.09,NE,50,2.9,6.9,81,0.00,,,0.00,meteobridge,2013-09-27 02:46:00,
2013-09-27 04:51:00,50.4,44.8,30.10,ENE,62,0.9,6.9,81,0.00,,,0.00,meteobridge,2013-09-27 02:51:00,
2013-09-27 04:56:00,50.2,44.6,30.09,North,9,2.0,6.0,81,0.00,,,0.00,meteobridge,2013-09-27 02:56:00,
2013-09-27 05:01:00,50.2,45.0,30.09,NNE,33,4.9,6.0,82,0.00,,,0.00,meteobridge,2013-09-27 03:01:00,
2013-09-27 05:06:00,50.0,44.8,30.09,ENE,57,2.9,4.9,82,0.00,,,0.00,meteobridge,2013-09-27 03:06:00,
2013-09-27 05:11:00,50.0,44.8,30.09,East,101,2.0,6.0,82,0.00,,,0.00,meteobridge,2013-09-27 03:11:00,
2013-09-27 05:16:00,49.8,44.8,30.09,North,8,4.0,4.9,83,0.00,,,0.00,meteobridge,2013-09-27 03:16:00,
2013-09-27 05:21:00,49.8,44.8,30.09,ENE,63,4.0,6.0,83,0.00,,,0.00,meteobridge,2013-09-27 03:21:00,
2013-09-27 05:26:00,49.6,44.8,30.09,ENE,76,4.9,4.9,83,0.00,,,0.00,meteobridge,2013-09-27 03:26:00,
2013-09-27 05:31:00,49.6,44.8,30.09,East,86,2.9,10.1,83,0.00,,,0.00,meteobridge,2013-09-27 03:31:00,
2013-09-27 05:36:00,49.6,44.8,30.09,East,94,2.0,4.9,83,0.00,,,0.00,meteobridge,2013-09-27 03:36:00,
2013-09-27 05:41:00,49.6,44.8,30.09,South,176,0.9,6.9,83,0.00,,,0.00,meteobridge,2013-09-27 03:41:00,
2013-09-27 05:46:00,49.5,44.6,30.08,ENE,61,6.0,8.1,83,0.00,,,0.00,meteobridge,2013-09-27 03:46:00,
2013-09-27 05:52:00,49.5,44.6,30.08,ENE,77,8.9,8.9,83,0.00,,,0.00,meteobridge,2013-09-27 03:52:00,
2013-09-27 05:57:00,49.3,44.4,30.08,ENE,71,4.0,10.1,83,0.00,,,0.00,meteobridge,2013-09-27 03:57:00,
2013-09-27 06:01:00,49.3,44.6,30.09,East,98,0.0,4.9,84,0.00,,,0.00,meteobridge,2013-09-27 04:01:00,
2013-09-27 06:06:00,49.1,44.4,30.08,East,94,4.9,8.1,84,0.00,,,0.00,meteobridge,2013-09-27 04:06:00,
2013-09-27 06:12:00,48.9,44.2,30.08,ENE,69,6.0,8.1,84,0.00,,,0.00,meteobridge,2013-09-27 04:12:00,
2013-09-27 06:17:00,48.7,44.1,30.08,ENE,68,2.9,6.0,84,0.00,,,0.00,meteobridge,2013-09-27 04:17:00,
2013-09-27 06:22:00,48.6,44.2,30.08,East,84,2.9,6.0,85,0.00,,,0.00,meteobridge,2013-09-27 04:22:00,
2013-09-27 06:27:00,48.6,44.2,30.08,East,90,2.9,6.9,85,0.00,,,0.00,meteobridge,2013-09-27 04:27:00,
2013-09-27 06:32:00,48.4,44.1,30.09,NE,41,4.9,6.0,85,0.00,,,0.00,meteobridge,2013-09-27 04:32:00,
2013-09-27 06:37:00,48.2,44.2,30.09,NNE,19,2.9,6.0,86,0.00,,,0.00,meteobridge,2013-09-27 04:37:00,
2013-09-27 06:42:00,48.0,44.1,30.09,SE,127,0.0,4.9,86,0.00,,,0.00,meteobridge,2013-09-27 04:42:00,
2013-09-27 06:47:00,47.8,43.9,30.08,ENE,73,4.9,6.0,86,0.00,,,0.00,meteobridge,2013-09-27 04:47:00,
2013-09-27 06:52:00,47.8,43.9,30.08,East,88,2.9,4.9,86,0.00,,,0.00,meteobridge,2013-09-27 04:52:00,
2013-09-27 06:57:00,47.7,44.1,30.09,East,88,4.0,4.9,87,0.00,,,0.00,meteobridge,2013-09-27 04:57:00,
2013-09-27 07:02:00,47.5,43.9,30.09,NE,53,0.9,4.9,87,0.00,,,0.00,meteobridge,2013-09-27 05:02:00,
2013-09-27 07:07:00,47.5,43.9,30.09,East,89,2.0,2.9,87,0.00,,,0.00,meteobridge,2013-09-27 05:07:00,
2013-09-27 07:12:00,47.5,43.9,30.09,ESE,105,0.9,2.9,87,0.00,,,0.00,meteobridge,2013-09-27 05:12:00,
2013-09-27 07:17:00,47.3,43.7,30.09,ENE,73,4.0,6.0,87,0.00,,,0.00,meteobridge,2013-09-27 05:17:00,
2013-09-27 07:22:00,47.1,43.7,30.09,NE,50,4.9,8.9,88,0.00,,,0.00,meteobridge,2013-09-27 05:22:00,
2013-09-27 07:27:00,47.1,43.7,30.09,NE,48,4.0,8.1,88,0.00,,,0.00,meteobridge,2013-09-27 05:27:00,
2013-09-27 07:32:00,46.9,43.5,30.09,ENE,67,0.9,8.1,88,0.00,,,0.00,meteobridge,2013-09-27 05:32:00,
2013-09-27 07:37:00,46.9,43.5,30.09,NE,49,4.9,6.0,88,0.00,,,0.00,meteobridge,2013-09-27 05:37:00,
2013-09-27 07:42:00,46.9,43.5,30.09,NW,304,2.9,8.1,88,0.00,,,0.00,meteobridge,2013-09-27 05:42:00,
2013-09-27 07:47:00,46.9,43.5,30.09,ENE,78,6.9,6.9,88,0.00,,,0.00,meteobridge,2013-09-27 05:47:00,
2013-09-27 07:52:00,46.9,43.5,30.09,ENE,60,4.0,10.1,88,0.00,,,0.00,meteobridge,2013-09-27 05:52:00,
2013-09-27 07:57:00,46.9,43.5,30.08,NE,40,6.0,8.9,88,0.00,,,0.00,meteobridge,2013-09-27 05:57:00,
2013-09-27 08:02:00,46.9,43.5,30.09,East,89,6.9,10.1,88,0.00,,,0.00,meteobridge,2013-09-27 06:02:00,
2013-09-27 08:08:00,47.1,43.7,30.09,ENE,75,6.0,6.0,88,0.00,,,0.00,meteobridge,2013-09-27 06:08:00,
2013-09-27 08:13:00,47.1,43.7,30.09,NNE,33,2.0,6.0,88,0.00,,,0.00,meteobridge,2013-09-27 06:13:00,
2013-09-27 08:18:00,47.3,43.9,30.09,ENE,75,2.9,10.1,88,0.00,,,0.00,meteobridge,2013-09-27 06:18:00,
2013-09-27 08:23:00,47.3,43.9,30.09,ENE,67,0.9,8.1,88,0.00,,,0.00,meteobridge,2013-09-27 06:23:00,
2013-09-27 08:28:00,47.1,43.7,30.09,ENE,62,4.9,8.1,88,0.00,,,0.00,meteobridge,2013-09-27 06:28:00,
2013-09-27 08:33:00,47.1,43.7,30.09,SSE,159,2.9,8.9,88,0.00,,,0.00,meteobridge,2013-09-27 06:33:00,
2013-09-27 08:38:00,47.5,44.1,30.09,NE,34,2.9,8.1,88,0.00,,,0.00,meteobridge,2013-09-27 06:38:00,
2013-09-27 08:43:00,47.7,44.2,30.09,ESE,106,8.9,11.0,88,0.00,,,0.00,meteobridge,2013-09-27 06:43:00,
2013-09-27 08:48:00,47.8,44.2,30.09,ENE,66,4.9,8.1,87,0.00,,,0.00,meteobridge,2013-09-27 06:48:00,
2013-09-27 08:53:00,48.0,44.4,30.09,ENE,65,2.9,6.9,87,0.00,,,0.00,meteobridge,2013-09-27 06:53:00,
2013-09-27 08:58:00,48.0,44.4,30.09,ESE,122,0.9,10.1,87,0.00,,,0.00,meteobridge,2013-09-27 06:58:00,
2013-09-27 09:03:00,48.4,44.8,30.09,NE,54,0.9,8.1,87,0.00,,,0.00,meteobridge,2013-09-27 07:03:00,
2013-09-27 09:08:00,48.4,44.4,30.09,ENE,69,4.9,11.0,86,0.00,,,0.00,meteobridge,2013-09-27 07:08:00,
2013-09-27 09:13:00,48.6,44.6,30.09,ENE,73,2.0,8.9,86,0.00,,,0.00,meteobridge,2013-09-27 07:13:00,
2013-09-27 09:18:00,48.7,44.8,30.10,East,86,4.9,8.9,86,0.00,,,0.00,meteobridge,2013-09-27 07:18:00,
2013-09-27 09:23:00,48.9,44.6,30.10,NE,53,2.0,6.9,85,0.00,,,0.00,meteobridge,2013-09-27 07:23:00,
2013-09-27 09:28:00,49.3,45.0,30.10,North,359,0.9,4.0,85,0.00,,,0.00,meteobridge,2013-09-27 07:28:00,
2013-09-27 09:33:00,49.3,45.0,30.10,NE,44,4.9,8.1,85,0.00,,,0.00,meteobridge,2013-09-27 07:33:00,
2013-09-27 09:38:00,49.5,45.1,30.10,ESE,103,8.1,10.1,85,0.00,,,0.00,meteobridge,2013-09-27 07:38:00,
2013-09-27 09:43:00,49.5,44.8,30.10,North,9,4.0,10.1,84,0.00,,,0.00,meteobridge,2013-09-27 07:43:00,
2013-09-27 09:48:00,49.6,45.3,30.10,North,8,0.9,8.9,85,0.00,,,0.00,meteobridge,2013-09-27 07:48:00,
2013-09-27 09:49:00,49.6,45.3,30.10,East,90,2.9,6.0,85,0.00,,,0.00,meteobridge,2013-09-27 07:49:00,
2013-09-27 09:54:00,50.0,45.3,30.09,ENE,77,8.9,13.0,84,0.00,,,0.00,meteobridge,2013-09-27 07:54:00,
2013-09-27 09:59:00,50.2,45.5,30.09,East,101,2.0,6.0,84,0.00,,,0.00,meteobridge,2013-09-27 07:59:00,
2013-09-27 10:04:00,50.4,45.3,30.09,NE,55,8.9,8.9,83,0.00,,,0.00,meteobridge,2013-09-27 08:04:00,
2013-09-27 10:09:00,50.7,45.7,30.09,ESE,112,6.0,11.0,83,0.00,,,0.00,meteobridge,2013-09-27 08:09:00,
2013-09-27 10:14:00,51.1,45.9,30.09,ESE,108,4.9,8.9,82,0.00,,,0.00,meteobridge,2013-09-27 08:14:00,
2013-09-27 10:19:00,51.3,45.7,30.09,North,354,2.9,8.9,81,0.00,,,0.00,meteobridge,2013-09-27 08:19:00,
2013-09-27 10:24:00,51.4,45.5,30.09,NNE,23,6.0,8.1,80,0.00,,,0.00,meteobridge,2013-09-27 08:24:00,
2013-09-27 10:29:00,51.4,45.5,30.09,SE,133,0.9,10.1,80,0.00,,,0.00,meteobridge,2013-09-27 08:29:00,
2013-09-27 10:34:00,51.6,45.3,30.09,ESE,120,6.9,12.1,79,0.00,,,0.00,meteobridge,2013-09-27 08:34:00,
2013-09-27 10:39:00,52.0,45.7,30.09,NE,44,4.9,8.9,79,0.00,,,0.00,meteobridge,2013-09-27 08:39:00,
2013-09-27 10:44:00,52.3,45.3,30.09,NE,50,4.9,13.0,77,0.00,,,0.00,meteobridge,2013-09-27 08:44:00,
2013-09-27 10:49:00,52.3,45.3,30.09,East,101,4.9,6.0,77,0.00,,,0.00,meteobridge,2013-09-27 08:49:00,
2013-09-27 10:54:00,52.9,45.9,30.09,ENE,60,6.9,10.1,77,0.00,,,0.00,meteobridge,2013-09-27 08:54:00,
2013-09-27 10:59:00,53.2,45.9,30.09,SW,227,2.9,11.0,76,0.00,,,0.00,meteobridge,2013-09-27 08:59:00,
2013-09-27 11:05:00,53.1,45.0,30.09,ENE,62,6.9,11.0,74,0.00,,,0.00,meteobridge,2013-09-27 09:05:00,
2013-09-27 11:10:00,53.2,45.5,30.09,SE,136,4.9,10.1,75,0.00,,,0.00,meteobridge,2013-09-27 09:10:00,
2013-09-27 11:15:00,53.4,45.3,30.09,East,91,6.9,10.1,74,0.00,,,0.00,meteobridge,2013-09-27 09:15:00,
2013-09-27 11:20:00,53.8,45.3,30.09,SSW,193,4.0,11.0,73,0.00,,,0.00,meteobridge,2013-09-27 09:20:00,
2013-09-27 11:25:00,54.0,45.5,30.08,SE,131,2.0,11.0,73,0.00,,,0.00,meteobridge,2013-09-27 09:25:00,
2013-09-27 11:30:00,54.3,45.9,30.09,SSW,201,2.0,6.0,73,0.00,,,0.00,meteobridge,2013-09-27 09:30:00,
2013-09-27 11:35:00,54.5,45.7,30.09,ENE,71,13.0,14.1,72,0.00,,,0.00,meteobridge,2013-09-27 09:35:00,
2013-09-27 11:40:00,54.3,45.5,30.08,ENE,57,6.9,10.1,72,0.00,,,0.00,meteobridge,2013-09-27 09:40:00,
2013-09-27 11:45:00,54.5,46.0,30.08,ESE,107,4.0,6.0,73,0.00,,,0.00,meteobridge,2013-09-27 09:45:00,
2013-09-27 11:50:00,55.0,46.6,30.08,ENE,77,8.9,10.1,73,0.00,,,0.00,meteobridge,2013-09-27 09:50:00,
2013-09-27 11:55:00,55.2,46.4,30.08,SE,146,4.0,8.1,72,0.00,,,0.00,meteobridge,2013-09-27 09:55:00,
2013-09-27 12:00:00,55.6,46.8,30.08,NE,51,2.0,6.9,72,0.00,,,0.00,meteobridge,2013-09-27 10:00:00,
2013-09-27 12:05:00,55.6,46.4,30.08,SE,131,2.0,6.9,71,0.00,,,0.00,meteobridge,2013-09-27 10:05:00,
2013-09-27 12:10:00,55.8,46.6,30.08,NE,49,6.0,11.0,71,0.00,,,0.00,meteobridge,2013-09-27 10:10:00,
2013-09-27 12:15:00,55.8,46.6,30.07,NE,34,10.1,12.1,71,0.00,,,0.00,meteobridge,2013-09-27 10:15:00,
2013-09-27 12:20:00,55.9,47.1,30.07,East,80,4.0,10.1,72,0.00,,,0.00,meteobridge,2013-09-27 10:20:00,
2013-09-27 12:25:00,56.1,47.3,30.07,North,4,6.0,13.0,72,0.00,,,0.00,meteobridge,2013-09-27 10:25:00,
2013-09-27 12:31:00,56.3,47.5,30.07,SSW,203,2.0,8.9,72,0.00,,,0.00,meteobridge,2013-09-27 10:31:00,
2013-09-27 12:36:00,57.0,47.7,30.07,SE,127,6.0,6.9,71,0.00,,,0.00,meteobridge,2013-09-27 10:36:00,
2013-09-27 12:41:00,56.8,47.5,30.07,NE,51,6.9,12.1,71,0.00,,,0.00,meteobridge,2013-09-27 10:41:00,
2013-09-27 12:46:00,56.8,47.5,30.07,East,92,0.9,11.0,71,0.00,,,0.00,meteobridge,2013-09-27 10:46:00,
2013-09-27 12:51:00,57.2,47.8,30.07,NE,46,6.9,10.1,71,0.00,,,0.00,meteobridge,2013-09-27 10:51:00,
2013-09-27 12:56:00,57.2,47.8,30.07,East,82,6.9,8.9,71,0.00,,,0.00,meteobridge,2013-09-27 10:56:00,
2013-09-27 13:01:00,57.4,48.0,30.07,East,89,6.0,8.1,71,0.00,,,0.00,meteobridge,2013-09-27 11:01:00,
2013-09-27 13:06:00,57.6,48.2,30.07,East,82,10.1,10.1,71,0.00,,,0.00,meteobridge,2013-09-27 11:06:00,
2013-09-27 13:11:00,57.7,48.4,30.06,East,84,4.9,6.9,71,0.00,,,0.00,meteobridge,2013-09-27 11:11:00,
2013-09-27 13:16:00,57.9,48.2,30.06,SE,127,2.9,6.0,70,0.00,,,0.00,meteobridge,2013-09-27 11:16:00,
2013-09-27 13:21:00,57.9,48.2,30.06,ENE,73,10.1,12.1,70,0.00,,,0.00,meteobridge,2013-09-27 11:21:00,
2013-09-27 13:26:00,57.9,48.2,30.06,East,94,4.9,8.1,70,0.00,,,0.00,meteobridge,2013-09-27 11:26:00,
2013-09-27 13:31:00,58.3,48.6,30.07,East,81,4.9,8.1,70,0.00,,,0.00,meteobridge,2013-09-27 11:31:00,
2013-09-27 13:36:00,58.6,48.9,30.06,West,264,2.0,8.9,70,0.00,,,0.00,meteobridge,2013-09-27 11:36:00,
2013-09-27 13:41:00,58.8,48.7,30.06,ENE,74,4.9,11.0,69,0.00,,,0.00,meteobridge,2013-09-27 11:41:00,
2013-09-27 13:46:00,59.2,49.1,30.06,NE,44,8.1,8.9,69,0.00,,,0.00,meteobridge,2013-09-27 11:46:00,
2013-09-27 13:51:00,59.4,48.7,30.06,NNW,328,4.0,14.1,68,0.00,,,0.00,meteobridge,2013-09-27 11:51:00,
2013-09-27 13:56:00,59.2,48.6,30.06,ENE,75,6.9,10.1,68,0.00,,,0.00,meteobridge,2013-09-27 11:56:00,
2013-09-27 14:01:00,59.2,48.2,30.06,SE,145,2.9,10.1,67,0.00,,,0.00,meteobridge,2013-09-27 12:01:00,
2013-09-27 14:06:00,59.5,48.6,30.06,ESE,105,6.9,11.0,67,0.00,,,0.00,meteobridge,2013-09-27 12:06:00,
2013-09-27 14:11:00,59.5,48.9,30.06,SE,124,2.0,8.9,68,0.00,,,0.00,meteobridge,2013-09-27 12:11:00,
2013-09-27 14:16:00,59.9,48.9,30.06,ESE,105,12.1,13.0,67,0.00,,,0.00,meteobridge,2013-09-27 12:16:00,
2013-09-27 14:21:00,59.9,48.9,30.06,ESE,120,6.0,8.1,67,0.00,,,0.00,meteobridge,2013-09-27 12:21:00,
2013-09-27 14:26:00,60.1,49.1,30.06,SSE,156,2.0,6.0,67,0.00,,,0.00,meteobridge,2013-09-27 12:26:00,
2013-09-27 14:31:00,60.3,49.3,30.05,ESE,117,4.9,11.0,67,0.00,,,0.00,meteobridge,2013-09-27 12:31:00,
2013-09-27 14:36:00,60.3,49.3,30.05,NNE,19,6.0,10.1,67,0.00,,,0.00,meteobridge,2013-09-27 12:36:00,
2013-09-27 14:41:00,60.4,49.1,30.05,East,94,2.9,12.1,66,0.00,,,0.00,meteobridge,2013-09-27 12:41:00,
2013-09-27 14:46:00,60.3,49.3,30.05,ESE,105,10.1,15.0,67,0.00,,,0.00,meteobridge,2013-09-27 12:46:00,
2013-09-27 14:52:00,60.3,49.3,30.05,ESE,114,6.9,8.9,67,0.00,,,0.00,meteobridge,2013-09-27 12:52:00,
2013-09-27 14:57:00,60.4,49.8,30.05,East,80,4.0,4.9,68,0.00,,,0.00,meteobridge,2013-09-27 12:57:00,
2013-09-27 15:02:00,61.0,49.5,30.05,SSE,159,6.0,11.0,66,0.00,,,0.00,meteobridge,2013-09-27 13:02:00,
2013-09-27 15:07:00,60.4,49.5,30.05,East,87,6.9,10.1,67,0.00,,,0.00,meteobridge,2013-09-27 13:07:00,
2013-09-27 15:12:00,60.6,49.6,30.05,ESE,114,6.9,11.0,67,0.00,,,0.00,meteobridge,2013-09-27 13:12:00,
2013-09-27 15:17:00,60.6,50.0,30.05,East,81,6.9,11.0,68,0.00,,,0.00,meteobridge,2013-09-27 13:17:00,
2013-09-27 15:22:00,60.8,50.2,30.04,ESE,122,4.0,11.0,68,0.00,,,0.00,meteobridge,2013-09-27 13:22:00,
2013-09-27 15:27:00,60.6,50.0,30.04,NNW,347,4.0,8.9,68,0.00,,,0.00,meteobridge,2013-09-27 13:27:00,
2013-09-27 15:32:00,61.3,50.4,30.04,ESE,117,6.0,8.1,67,0.00,,,0.00,meteobridge,2013-09-27 13:32:00,
2013-09-27 15:37:00,61.2,50.2,30.04,ENE,64,6.0,12.1,67,0.00,,,0.00,meteobridge,2013-09-27 13:37:00,
2013-09-27 15:42:00,61.2,50.2,30.04,ESE,108,2.0,10.1,67,0.00,,,0.00,meteobridge,2013-09-27 13:42:00,
2013-09-27 15:47:00,61.3,50.4,30.04,East,79,2.9,10.1,67,0.00,,,0.00,meteobridge,2013-09-27 13:47:00,
2013-09-27 15:52:00,61.3,49.8,30.04,East,101,4.9,10.1,66,0.00,,,0.00,meteobridge,2013-09-27 13:52:00,
2013-09-27 15:57:00,61.2,50.5,30.04,SSE,162,0.9,6.9,68,0.00,,,0.00,meteobridge,2013-09-27 13:57:00,
2013-09-27 16:02:00,61.9,50.7,30.04,ENE,63,4.0,6.9,67,0.00,,,0.00,meteobridge,2013-09-27 14:02:00,
2013-09-27 16:07:00,61.9,50.4,30.03,SSW,195,2.0,8.1,66,0.00,,,0.00,meteobridge,2013-09-27 14:07:00,
2013-09-27 16:12:00,61.9,50.7,30.03,NE,40,0.9,6.0,67,0.00,,,0.00,meteobridge,2013-09-27 14:12:00,
2013-09-27 16:17:00,62.1,50.9,30.03,ESE,110,2.9,8.1,67,0.00,,,0.00,meteobridge,2013-09-27 14:17:00,
2013-09-27 16:22:00,62.2,50.7,30.03,ESE,114,4.0,8.1,66,0.00,,,0.00,meteobridge,2013-09-27 14:22:00,
2013-09-27 16:27:00,61.9,50.4,30.03,NE,54,6.9,10.1,66,0.00,,,0.00,meteobridge,2013-09-27 14:27:00,
2013-09-27 16:32:00,61.5,50.9,30.03,West,259,0.9,10.1,68,0.00,,,0.00,meteobridge,2013-09-27 14:32:00,
2013-09-27 16:37:00,61.3,50.4,30.03,SE,131,4.9,10.1,67,0.00,,,0.00,meteobridge,2013-09-27 14:37:00,
2013-09-27 16:42:00,61.3,50.4,30.03,SSE,159,4.9,8.9,67,0.00,,,0.00,meteobridge,2013-09-27 14:42:00,
2013-09-27 16:48:00,61.2,50.5,30.03,East,92,2.0,8.1,68,0.00,,,0.00,meteobridge,2013-09-27 14:48:00,
2013-09-27 16:53:00,61.3,50.4,30.03,ESE,109,8.1,11.0,67,0.00,,,0.00,meteobridge,2013-09-27 14:53:00,
2013-09-27 16:58:00,61.0,50.0,30.03,ESE,123,6.0,11.0,67,0.00,,,0.00,meteobridge,2013-09-27 14:58:00,
2013-09-27 17:03:00,61.2,50.2,30.03,SE,124,4.9,10.1,67,0.00,,,0.00,meteobridge,2013-09-27 15:03:00,
2013-09-27 17:08:00,61.2,50.2,30.03,SSE,152,2.9,8.9,67,0.00,,,0.00,meteobridge,2013-09-27 15:08:00,
2013-09-27 17:13:00,61.2,50.2,30.03,SE,130,6.9,6.9,67,0.00,,,0.00,meteobridge,2013-09-27 15:13:00,
2013-09-27 17:18:00,61.2,50.2,30.03,ESE,107,4.0,8.9,67,0.00,,,0.00,meteobridge,2013-09-27 15:18:00,
2013-09-27 17:23:00,61.2,49.6,30.03,SE,143,8.1,8.1,66,0.00,,,0.00,meteobridge,2013-09-27 15:23:00,
2013-09-27 17:28:00,61.3,49.8,30.03,East,101,6.0,11.0,66,0.00,,,0.00,meteobridge,2013-09-27 15:28:00,
2013-09-27 17:33:00,61.2,49.6,30.02,SE,135,6.0,11.0,66,0.00,,,0.00,meteobridge,2013-09-27 15:33:00,
2013-09-27 17:38:00,61.2,49.6,30.02,SE,142,0.9,4.9,66,0.00,,,0.00,meteobridge,2013-09-27 15:38:00,
2013-09-27 17:43:00,61.2,49.6,30.02,SE,124,8.1,8.9,66,0.00,,,0.00,meteobridge,2013-09-27 15:43:00,
2013-09-27 17:48:00,61.0,49.5,30.02,ESE,117,2.0,8.1,66,0.00,,,0.00,meteobridge,2013-09-27 15:48:00,
2013-09-27 17:53:00,61.0,49.1,30.02,ESE,111,2.9,6.9,65,0.00,,,0.00,meteobridge,2013-09-27 15:53:00,
2013-09-27 17:58:00,60.8,48.9,30.02,SSE,156,6.0,8.9,65,0.00,,,0.00,meteobridge,2013-09-27 15:58:00,
2013-09-27 18:03:00,60.8,49.5,30.02,SE,132,4.9,4.9,66,0.00,,,0.00,meteobridge,2013-09-27 16:03:00,
2013-09-27 18:08:00,60.8,49.5,30.02,ESE,117,4.0,8.9,66,0.00,,,0.00,meteobridge,2013-09-27 16:08:00,
2013-09-27 18:13:00,60.6,49.3,30.02,SE,146,4.0,6.9,66,0.00,,,0.00,meteobridge,2013-09-27 16:13:00,
2013-09-27 18:18:00,60.4,49.5,30.02,ENE,71,4.0,8.9,67,0.00,,,0.00,meteobridge,2013-09-27 16:18:00,
2013-09-27 18:23:00,60.4,49.5,30.02,East,80,6.0,8.9,67,0.00,,,0.00,meteobridge,2013-09-27 16:23:00,
2013-09-27 18:28:00,60.3,49.3,30.02,ENE,68,6.0,8.1,67,0.00,,,0.00,meteobridge,2013-09-27 16:28:00,
2013-09-27 18:33:00,60.3,49.3,30.02,ESE,108,2.0,6.9,67,0.00,,,0.00,meteobridge,2013-09-27 16:33:00,
2013-09-27 18:38:00,60.1,49.5,30.02,ESE,112,0.9,2.0,68,0.00,,,0.00,meteobridge,2013-09-27 16:38:00,
2013-09-27 18:43:00,60.1,49.5,30.02,SE,124,2.9,6.0,68,0.00,,,0.00,meteobridge,2013-09-27 16:43:00,
2013-09-27 18:49:00,59.9,49.6,30.02,SSE,149,0.9,4.9,69,0.00,,,0.00,meteobridge,2013-09-27 16:49:00,
2013-09-27 18:54:00,59.9,49.6,30.02,East,84,2.0,4.9,69,0.00,,,0.00,meteobridge,2013-09-27 16:54:00,
2013-09-27 18:59:00,59.7,49.5,30.02,ESE,117,0.9,2.9,69,0.00,,,0.00,meteobridge,2013-09-27 16:59:00,
2013-09-27 19:04:00,59.5,49.8,30.02,SE,135,0.0,2.0,70,0.00,,,0.00,meteobridge,2013-09-27 17:04:00,
2013-09-27 19:09:00,59.4,49.6,30.02,East,101,2.0,4.9,70,0.00,,,0.00,meteobridge,2013-09-27 17:09:00,
2013-09-27 19:14:00,59.2,49.5,30.02,ESE,117,2.0,4.0,70,0.00,,,0.00,meteobridge,2013-09-27 17:14:00,
2013-09-27 19:19:00,59.2,49.5,30.02,ENE,64,0.0,4.9,70,0.00,,,0.00,meteobridge,2013-09-27 17:19:00,
2013-09-27 19:24:00,58.8,49.5,30.02,East,84,2.9,4.9,71,0.00,,,0.00,meteobridge,2013-09-27 17:24:00,
2013-09-27 19:26:00,58.6,49.3,30.02,East,91,2.0,2.0,71,0.00,,,0.00,meteobridge,2013-09-27 17:26:00,
2013-09-27 19:31:00,58.5,49.1,30.02,East,100,2.0,4.0,71,0.00,,,0.00,meteobridge,2013-09-27 17:31:00,
2013-09-27 19:36:00,58.3,49.3,30.02,East,95,4.0,4.9,72,0.00,,,0.00,meteobridge,2013-09-27 17:36:00,
2013-09-27 19:41:00,58.3,49.3,30.02,East,81,2.9,4.0,72,0.00,,,0.00,meteobridge,2013-09-27 17:41:00,
2013-09-27 19:46:00,57.9,48.9,30.02,East,84,4.0,4.0,72,0.00,,,0.00,meteobridge,2013-09-27 17:46:00,
2013-09-27 19:51:00,57.9,49.3,30.02,ENE,65,4.0,4.0,73,0.00,,,0.00,meteobridge,2013-09-27 17:51:00,
2013-09-27 19:56:00,57.7,49.1,30.02,ENE,58,2.0,4.0,73,0.00,,,0.00,meteobridge,2013-09-27 17:56:00,
2013-09-27 20:02:00,57.6,49.3,30.02,East,84,4.9,4.9,74,0.00,,,0.00,meteobridge,2013-09-27 18:02:00,
2013-09-27 20:07:00,57.6,49.3,30.02,ESE,114,4.0,6.0,74,0.00,,,0.00,meteobridge,2013-09-27 18:07:00,
2013-09-27 20:12:00,57.4,49.1,30.02,ENE,76,4.9,6.0,74,0.00,,,0.00,meteobridge,2013-09-27 18:12:00,
2013-09-27 20:17:00,57.2,49.3,30.02,SE,133,0.9,4.0,75,0.00,,,0.00,meteobridge,2013-09-27 18:17:00,
2013-09-27 20:22:00,57.0,49.1,30.02,East,86,2.9,4.0,75,0.00,,,0.00,meteobridge,2013-09-27 18:22:00,
2013-09-27 20:27:00,57.0,49.1,30.02,ESE,112,2.0,4.0,75,0.00,,,0.00,meteobridge,2013-09-27 18:27:00,
2013-09-27 20:32:00,56.8,48.9,30.02,East,97,2.9,4.9,75,0.00,,,0.00,meteobridge,2013-09-27 18:32:00,
2013-09-27 20:37:00,56.8,48.9,30.02,ESE,112,0.9,6.0,75,0.00,,,0.00,meteobridge,2013-09-27 18:37:00,
2013-09-27 20:42:00,56.7,48.7,30.02,East,97,4.0,6.0,75,0.00,,,0.00,meteobridge,2013-09-27 18:42:00,
2013-09-27 20:47:00,56.7,48.7,30.03,East,86,0.9,2.9,75,0.00,,,0.00,meteobridge,2013-09-27 18:47:00,
2013-09-27 20:52:00,56.5,48.7,30.03,ESE,110,0.0,4.9,75,0.00,,,0.00,meteobridge,2013-09-27 18:52:00,
2013-09-27 20:57:00,56.5,48.7,30.03,ESE,103,0.0,4.9,75,0.00,,,0.00,meteobridge,2013-09-27 18:57:00,
2013-09-27 21:02:00,56.1,48.7,30.03,ENE,78,2.0,4.0,76,0.00,,,0.00,meteobridge,2013-09-27 19:02:00,
2013-09-27 21:07:00,55.9,48.6,30.03,East,83,0.9,4.0,76,0.00,,,0.00,meteobridge,2013-09-27 19:07:00,
2013-09-27 21:12:00,55.9,48.6,30.03,East,84,2.0,2.9,76,0.00,,,0.00,meteobridge,2013-09-27 19:12:00,
2013-09-27 21:17:00,55.8,48.4,30.03,East,84,2.9,4.0,76,0.00,,,0.00,meteobridge,2013-09-27 19:17:00,
2013-09-27 21:22:00,55.6,48.2,30.02,East,82,2.0,4.0,76,0.00,,,0.00,meteobridge,2013-09-27 19:22:00,
2013-09-27 21:27:00,55.4,48.4,30.02,East,95,2.0,2.0,77,0.00,,,0.00,meteobridge,2013-09-27 19:27:00,
2013-09-27 21:32:00,55.4,48.4,30.02,East,89,2.0,2.9,77,0.00,,,0.00,meteobridge,2013-09-27 19:32:00,
2013-09-27 21:37:00,55.2,48.2,30.02,ENE,73,2.0,4.9,77,0.00,,,0.00,meteobridge,2013-09-27 19:37:00,
2013-09-27 21:42:00,55.2,48.2,30.02,ENE,71,2.9,6.0,77,0.00,,,0.00,meteobridge,2013-09-27 19:42:00,
2013-09-27 21:47:00,55.0,48.0,30.02,ENE,73,0.0,2.9,77,0.00,,,0.00,meteobridge,2013-09-27 19:47:00,
2013-09-27 21:52:00,55.0,48.0,30.02,SSW,197,0.9,4.9,77,0.00,,,0.00,meteobridge,2013-09-27 19:52:00,
2013-09-27 21:57:00,55.0,48.0,30.02,SE,132,0.9,4.9,77,0.00,,,0.00,meteobridge,2013-09-27 19:57:00,
2013-09-27 22:02:00,54.9,47.8,30.02,SE,135,0.9,4.9,77,0.00,,,0.00,meteobridge,2013-09-27 20:02:00,
2013-09-27 22:07:00,54.9,48.2,30.02,ENE,76,2.0,4.0,78,0.00,,,0.00,meteobridge,2013-09-27 20:07:00,
2013-09-27 22:12:00,54.9,47.8,30.02,ESE,105,4.0,6.0,77,0.00,,,0.00,meteobridge,2013-09-27 20:12:00,
2013-09-27 22:17:00,54.7,47.7,30.02,East,85,2.0,6.0,77,0.00,,,0.00,meteobridge,2013-09-27 20:17:00,
2013-09-27 22:22:00,54.7,47.7,30.02,East,86,2.0,2.9,77,0.00,,,0.00,meteobridge,2013-09-27 20:22:00,
2013-09-27 22:28:00,54.5,47.5,30.02,East,81,0.9,6.0,77,0.00,,,0.00,meteobridge,2013-09-27 20:28:00,
2013-09-27 22:33:00,54.3,47.3,30.03,East,88,4.0,4.0,77,0.00,,,0.00,meteobridge,2013-09-27 20:33:00,
2013-09-27 22:38:00,54.1,47.1,30.02,SE,131,0.9,4.0,77,0.00,,,0.00,meteobridge,2013-09-27 20:38:00,
2013-09-27 22:43:00,54.0,47.3,30.02,ENE,77,4.0,4.0,78,0.00,,,0.00,meteobridge,2013-09-27 20:43:00,
2013-09-27 22:48:00,54.0,47.3,30.02,ENE,67,2.9,4.9,78,0.00,,,0.00,meteobridge,2013-09-27 20:48:00,
2013-09-27 22:53:00,53.8,47.1,30.02,East,88,0.9,4.9,78,0.00,,,0.00,meteobridge,2013-09-27 20:53:00,
2013-09-27 22:58:00,53.8,47.1,30.02,ESE,114,2.0,4.0,78,0.00,,,0.00,meteobridge,2013-09-27 20:58:00,
2013-09-27 23:03:00,53.6,46.6,30.02,NE,56,2.0,4.9,77,0.00,,,0.00,meteobridge,2013-09-27 21:03:00,
2013-09-27 23:08:00,53.4,46.4,30.02,East,96,0.9,2.9,77,0.00,,,0.00,meteobridge,2013-09-27 21:08:00,
2013-09-27 23:13:00,53.2,46.2,30.02,ENE,70,2.0,2.9,77,0.00,,,0.00,meteobridge,2013-09-27 21:13:00,
2013-09-27 23:18:00,53.2,46.2,30.02,ENE,57,2.9,2.9,77,0.00,,,0.00,meteobridge,2013-09-27 21:18:00,
2013-09-27 23:23:00,53.1,46.0,30.02,East,80,2.9,4.0,77,0.00,,,0.00,meteobridge,2013-09-27 21:23:00,
2013-09-27 23:28:00,53.1,46.0,30.01,ENE,71,0.9,2.9,77,0.00,,,0.00,meteobridge,2013-09-27 21:28:00,
2013-09-27 23:33:00,52.9,45.9,30.01,East,97,0.9,2.9,77,0.00,,,0.00,meteobridge,2013-09-27 21:33:00,
2013-09-27 23:38:00,52.9,45.9,30.01,East,81,2.0,4.0,77,0.00,,,0.00,meteobridge,2013-09-27 21:38:00,
2013-09-27 23:43:00,52.7,46.0,30.01,East,83,2.0,4.9,78,0.00,,,0.00,meteobridge,2013-09-27 21:43:00,
2013-09-27 23:48:00,52.5,45.9,30.01,ESE,111,4.0,4.0,78,0.00,,,0.00,meteobridge,2013-09-27 21:48:00,
2013-09-27 23:53:00,52.5,45.9,30.01,SE,125,0.9,4.0,78,0.00,,,0.00,meteobridge,2013-09-27 21:53:00,
2013-09-27 23:58:00,52.3,45.7,30.01,ESE,105,0.9,6.9,78,0.00,,,0.00,meteobridge,2013-09-27 21:58:00,